Regional Weather Roundup
Issued by NWS

Home | Current Version | Previous Version | Graphics & Text | Print | Product List | Glossary On
Versions: 1 2 3 4 5 6 7 8 9 10 11 12 13 14 15 16 17 18 19 20 21 22 23 24 25 26 27 28 29 30 31 32 33 34 35 36 37 38 39 40 41 42 43 44 45 46 47 48 49 50
000
ASUS43 KMPX 011510
RWRMN
WEATHER ROUNDUP FOR MINNESOTA
NATIONAL WEATHER SERVICE TWIN CITIES/CHANHASSEN MN
1000 AM CDT WED OCT 01 2014


NOTE: "FAIR" INDICATES FEW OR NO CLOUDS BELOW 12,000 FEET WITH NO
SIGNIFICANT WEATHER AND/OR OBSTRUCTIONS TO VISIBILITY. N/A MEANS
CURRENT SKY AND/OR WEATHER CONDITIONS ARE NOT AVAILABLE.

MNZ060>063-068>070-011600-
   Twin Cities Metro

CITY           SKY/WX    TMP DP  RH WIND       PRES   REMARKS
TWIN CITIES    RAIN      50  48  93 SE14      29.83F FOG
ST PAUL        LGT RAIN  50  48  93 SE13G23   29.85F FOG
CRYSTAL        LGT RAIN  52  48  86 SE12      29.81F
BLAINE         CLOUDY    52  52 100 SE13      29.83F
LAKEVILLE      RAIN      48  48 100 SE5       29.84R
EDEN PRAIRIE   LGT RAIN  51  50  96 SE13      29.81F FOG
SOUTH ST PAUL  LGT RAIN  50  48  93 SE8       29.84F
LAKE ELMO      LGT RAIN  50  48  93 SE8       29.86F
$$
MNZ001>005-007-008-013>017-022>024-027-028-011600-
   Northwest Minnesota

CITY           SKY/WX    TMP DP  RH WIND       PRES   REMARKS
BEMIDJI        CLOUDY    54  51  90 S15       29.71S
HALLOCK        CLOUDY    61  52  72 S17       29.55R
ROSEAU         CLOUDY    61  54  77 S13G23    29.58S
WARROAD        CLOUDY    57  54  88 S13       29.60R
THIEF RVR FALL PTSUNNY   61  54  77 S20G26    29.62R
CROOKSTON      MOSUNNY   61  54  77 SW16      29.62S
FOSSTON        CLOUDY    61  55  82 S16G23    29.66S
DETROIT LAKES  CLOUDY    61  57  88 S12       29.71R
PARK RAPIDS    CLOUDY    52  51  97 S17       29.73S
MAHNOMEN       CLOUDY    62  57  84 S12G17    29.67R
$$
MNZ006-009>011-018-025>026-011600-
   North Central Minnesota

CITY           SKY/WX    TMP DP  RH WIND       PRES   REMARKS
BAUDETTE       CLOUDY    56  51  84 S12G22    29.65F
FLAG ISLAND    CLOUDY    57  54  88 S28G35    29.58S
INTL FALLS     CLOUDY    52  47  83 S9G18     29.73S
WASKISH        CLOUDY    55  52  88 S8        29.69S
BIG FORK       CLOUDY    52  46  82 S13G20    29.77R
LONGVILLE      CLOUDY    52  48  87 S8        29.77S
GRAND RAPIDS   CLOUDY    46  45  93 SE15      29.80S
CRANE LAKE     CLOUDY    50  46  87 S7G17     29.80F
ORR            CLOUDY    50  45  81 S13G22    29.77S
COOK           CLOUDY    50  46  87 SE10G21   29.81S
WALKER         CLOUDY    51  49  93 S10G16    29.74S
$$
MNZ012-019>021-037-011600-
   Northeast Minnesota

CITY           SKY/WX    TMP DP  RH WIND       PRES   REMARKS
DULUTH         LGT RAIN  48  45  89 SE10      29.86S FOG
ELY            CLOUDY    46  45  93 S7        29.85S
HIBBING        CLOUDY    49  45  86 SE9       29.83F FOG
EVELETH        CLOUDY    46  45  93 SE9       29.85S FOG
DULUTH HARBOR  DRIZZLE   48  46  93 CALM      29.88S
TWO HARBORS    LGT RAIN  46  41  81 E7        29.87S
SILVER BAY     CLOUDY    46  46 100 E6        29.88S
GRAND MARAIS     N/A     50  46  86 S8        29.93R
G MARAIS ARPRT CLOUDY    43  41  93 SE8       29.92R
$$
MNZ029>031-032-039>041-046>048-054>057-064-011600-
   West Central Minnesota

CITY           SKY/WX    TMP DP  RH WIND       PRES   REMARKS
FERGUS FALLS   CLOUDY    59  55  88 S14       29.71S
WHEATON        PTSUNNY   63  57  82 S9        29.71S
MORRIS         CLOUDY    59  57  94 SE13      29.71F FOG
ALEXANDRIA     CLOUDY    54  53  97 S12       29.76S FOG
ELBOW LAKE     CLOUDY    57  55  94 SE17      29.71S FOG
WADENA         CLOUDY    54  52  94 SE15G22   29.73F
GLENWOOD       CLOUDY    54  54 100 SE10      29.75F FOG
APPLETON       CLOUDY    63  59  88 S12       29.72S FOG
BENSON         CLOUDY    57  55  94 S10       29.74S FOG
ORTONVILLE     CLOUDY    63  61  94 SE6       29.70F FOG
MADISON        CLOUDY    66  63  88 S10       29.72S FOG
WILLMAR        FAIR      57  55  94 SE12      29.77S FOG
$$
MNZ033>034-036-042>043-049>051-058-059-011600-
   Central Minnesota

CITY           SKY/WX    TMP DP  RH WIND       PRES   REMARKS
ST CLOUD       LGT RAIN  53  48  83 SE10      29.80F
SAUK CENTRE    CLOUDY    51  51  98 SE8       29.77F FOG
PAYNESVILLE    CLOUDY    51  50  95 E12       29.78F
AITKIN         CLOUDY    52  46  82 SE9       29.78F HAZE
PINE RIVER     CLOUDY    52  50  93 SE14      29.81S FOG
BRAINERD       CLOUDY    49  47  93 S7        29.79S FOG
STAPLES        CLOUDY    50  48  93 SE8G16    29.76F FOG
LONG PRAIRIE   CLOUDY    50  50 100 SE9       29.78S FOG
LITTLE FALLS   CLOUDY    50  46  87 SE9       29.79S FOG
LITCHFIELD     CLOUDY    55  54  94 SE9       29.79F
BUFFALO        DRIZZLE   51  49  92 SE6       29.82S
MAPLE LAKE     CLOUDY    53  51  94 SE7       29.82S
$$
MNZ037-044-045-052-053-011600-
   East Central Minnesota

CITY           SKY/WX    TMP DP  RH WIND       PRES   REMARKS
PRINCETON      CLOUDY    52  48  87 SE7       29.83S
MORA           LGT RAIN  46  43  87 SE6       29.86R
CAMBRIDGE      RAIN      52  45  76 SE7       29.81F
RUSH CITY      LGT RAIN  48  46  95 SE10G16   29.85S
MOOSE LAKE     LGT RAIN  46  45  93 S3        29.84S
HINCKLEY       LGT RAIN  48  46  93 SE6       29.85S
CLOQUET        HVY RAIN  46  45  93 SE3       29.86S
MCGREGOR       CLOUDY    48  46  93 SE13      29.82F
$$
MNZ071>073-080-081-089-090-097-098-011600-
   Southwest Minnesota

CITY           SKY/WX    TMP DP  RH WIND       PRES   REMARKS
MONTEVIDEO     CLOUDY    59  59 100 S8        29.74S FOG
GRANITE FALLS  CLOUDY    60  57  90 SE8       29.76S
CANBY          CLOUDY    64  61  91 CALM      29.73F
MARSHALL       CLOUDY    63  55  77 SE10      29.73F
REDWOOD FALLS  CLOUDY    59  55  87 S13       29.76F
OLIVIA         CLOUDY    57  54  88 SE9       29.76F
PIPESTONE      CLOUDY    63  61  94 SW12      29.75R
WINDOM         FOG       55  55 100 SE6       29.79R VSB 3/4
WORTHINGTON    CLOUDY    57  57 100 SE6       29.78R
JACKSON        CLOUDY    55  54  94 SE7       29.79R FOG
TRACY          PTSUNNY   64  59  84 S9        29.75F
SLAYTON        CLOUDY    63  59  86 S7        29.77S
$$
MNZ065>067-074>077-082>085-091>093-011600-
   South Central Minnesota

CITY           SKY/WX    TMP DP  RH WIND       PRES   REMARKS
MANKATO        CLOUDY    52  46  82 SE17      29.80S
NEW ULM        CLOUDY    54  54 100 SE13      29.80R
ST JAMES       CLOUDY    55  54  94 SE7       29.80F FOG
FAIRMONT       CLOUDY    54  48  82 SE10      29.80R
GLENCOE        CLOUDY    53  52  95 SE10      29.80  FOG
FARIBAULT      RAIN      50  48  93 SE8       29.83S
OWATONNA       RAIN      52  48  87 SE9G16    29.82F
WASECA         RAIN      50  46  87 SE9       29.83R
ALBERT LEA     RAIN      52  52 100 SE17      29.81F
$$
MNZ078>079-086>088-094>096-011600-
   Southeast Minnesota

CITY           SKY/WX    TMP DP  RH WIND       PRES   REMARKS
ROCHESTER      RAIN      49  48  97 SE14      29.85F FOG
RED WING       RAIN      50  48  93 SE12      29.86F
STANTON        RAIN      51  48  90 SE8       29.82F
DODGE CENTER   HVY RAIN  50  48  93 SE15      29.83F
WINONA         RAIN      50  48  93 SE7       29.90F
AUSTIN         RAIN      50  48  93 SE8G16    29.82F
PRESTON        CLOUDY    49  47  94 SE12G18   29.87F FOG
$$
ABBREVIATIONS USED IN REMARKS
   TC - TEMPERATURES IN CELSIUS
  WCI - WIND CHILL INDEX
   HX - HEAT INDEX
  VSB - VISIBILITY
$$


USA.gov is the U.S. government's official web portal to all federal, state and local government web resources and services.